Flag for United Kingdom Weather past 2 weeks in Watford, England, United Kingdom

Now
30 °F

Sunny.


Feels Like: 27 °F
Forecast: 30 / 39 °F
Wind: 3 mph from West

Location: Northolt

Current Time: Dec 29, 2014 at 9:38:32 AM

Latest Report: Dec 29, 2014 at 8:50 AM


Visibility: 10 mi

Pressure: 30.72 "Hg

Humidity: 93%

Dew point: 28 °F

Location of WatfordLocation

Historic Weather in Watford — Graph

°F

Watford temperature yesterday

Maximum temperature yesterday: 43 °F (at 1:50 PM)
Minimum temperature yesterday: 27 °F (at 9:50 PM)
Average temperature yesterday: 34 °F

Past Weeks' High & Low Weather Summary

 TemperatureHumidityPressure
High57 °F (Dec 18, 11:50 AM)100% (Dec 15, 11:50 PM)30.69 "Hg (Dec 15, 11:50 PM)
Low27 °F (Dec 28, 9:50 PM)54% (Dec 24, 11:50 AM)29.50 "Hg (Dec 26, 11:50 PM)
Average45 °F82%30.05 "Hg
* Reported Dec 14 7:50 AM — Dec 29 7:50 AM, Watford, Weather by CustomWeather, © 2014

Note: Actual official high and low records may vary slightly from our data, if they occured in-between our weather recording intervals... More about our weather records

Advertising

Watford weather history for previous 24 hours

 ConditionsComfort  
Time TempWeatherWind HumidityBarometerVisibility
7:50 AM
Dec 29
27 °FClear.2 mph93%30.69 "Hg10 mi
6:50 AM28 °FClear.1 mph93%30.69 "Hg6 mi
5:50 AM27 °FClear.3 mph93%30.66 "HgN/A
4:50 AM28 °FClear.5 mph93%30.66 "HgN/A
3:50 AM27 °FClear.5 mph93%30.66 "HgN/A
2:50 AM27 °FPassing clouds.3 mph93%30.66 "HgN/A
1:50 AM27 °FClear.2 mph93%30.66 "Hg4 mi
12:50 AM28 °FClear.6 mph93%30.66 "Hg5 mi
11:50 PM
Dec 28
27 °FClear.6 mph100%30.66 "HgN/A
10:50 PM27 °FClear.2 mph86%30.66 "HgN/A
9:50 PM27 °FClear.2 mph93%30.66 "HgN/A
8:50 PM28 °FClear.1 mph86%30.63 "HgN/A
7:50 PM28 °FClear.2 mph93%30.63 "Hg10 mi
6:50 PM28 °FClear.3 mph86%30.63 "Hg10 mi
5:50 PM30 °FPassing clouds.6 mph86%30.60 "HgN/A
4:50 PM32 °FPassing clouds.5 mph80%30.57 "HgN/A
3:50 PM37 °FPassing clouds.5 mph70%30.54 "HgN/A
2:50 PM41 °FPassing clouds.8 mph61%30.51 "HgN/A
1:50 PM43 °FPassing clouds.8 mph57%30.48 "HgN/A
12:50 PM41 °FPassing clouds.12 mph61%30.48 "HgN/A
11:50 AM41 °FPassing clouds.9 mph61%30.45 "HgN/A
10:50 AM39 °FPassing clouds.9 mph65%30.42 "HgN/A
9:50 AM36 °FPassing clouds.8 mph70%30.39 "HgN/A
Weather by CustomWeather, © 2014

See weather overviewHow to use our weather pages